Flag for Canada Weather past 2 weeks in Igloolik, Nunavut Territory, Canada

Now
-11 °F

Clear.


Feels Like: -35 °F
Forecast: 6 / 11 °F
Wind: 16 mph from Northwest

Location: Hall Beach

Current Time: Oct 23, 2014 at 12:47:24 AM

Latest Report: Oct 23, 2014 at 12:00 AM


Visibility: 9 mi

Pressure: 30.03 "Hg

Humidity: 84%

Dew point: -15 °F

Location of IgloolikLocation

Historic Weather in Igloolik — Graph

°F

Igloolik temperature yesterday

Maximum temperature yesterday: 18 °F (at 5:00 AM)
Minimum temperature yesterday: -9 °F (at 10:00 PM)
Average temperature yesterday: 8 °F

Past Weeks' High & Low Weather Summary

 TemperatureHumidityPressure
High32 °F (Oct 11, 3:00 AM)100% (Oct 9, 3:00 AM)30.33 "Hg (Oct 9, 3:00 AM)
Low-9 °F (Oct 22, 10:00 PM)77% (Oct 22, 7:00 PM)29.38 "Hg (Oct 11, 3:00 AM)
Average22 °F93%29.82 "Hg
* Reported Oct 7 11:00 PM — Oct 22 11:00 PM, Igloolik, Weather by CustomWeather, © 2014

Note: Actual official high and low records may vary slightly from our data, if they occured in-between our weather recording intervals... More about our weather records

Advertising

Igloolik weather history for previous 24 hours

 ConditionsComfort  
Time TempWeatherWind HumidityBarometerVisibility
11:00 PM
Oct 22
-9 °FClear.23 mph84%30.01 "Hg9 mi
10:00 PM-9 °FIce fog.25 mph84%30.01 "Hg4 mi
9:00 PM-8 °FIce fog.24 mph77%29.98 "Hg3 mi
8:00 PM-8 °FLight snow. Low level haze.20 mph84%29.98 "Hg12 mi
7:00 PM-6 °FLow level haze.18 mph77%29.96 "Hg15 mi
6:00 PM-4 °FLow level haze.22 mph84%29.93 "Hg15 mi
5:00 PM-2 °FLow level haze.18 mph84%29.90 "Hg15 mi
4:00 PM1 °FScattered clouds.16 mph85%29.87 "Hg15 mi
3:00 PM5 °FLow level haze.20 mph85%29.84 "Hg15 mi
2:00 PM7 °FLow level haze.16 mph92%29.81 "Hg15 mi
1:00 PM7 °FScattered clouds.17 mph92%29.78 "Hg15 mi
12:00 PM14 °FSnow flurries. Partly sunny.22 mph92%29.74 "Hg8 mi
11:49 AM14 °FSnow flurries. Partly sunny.22 mph100%29.73 "Hg10 mi
11:00 AM16 °FLight snow. Mostly cloudy.21 mph100%29.71 "Hg12 mi
10:46 AM16 °FLight snow. Broken clouds.23 mph93%29.70 "Hg15 mi
10:00 AM12 °FLight snow. Partly sunny.15 mph100%29.70 "Hg15 mi
9:00 AM14 °FSnow flurries. Ice fog.17 mph92%29.69 "Hg2 mi
8:50 AM14 °FSnow flurries. Overcast.17 mph92%29.69 "Hg3 mi
8:00 AM14 °FSnow flurries. Partly sunny.18 mph92%29.67 "Hg4 mi
7:57 AM14 °FLow clouds.17 mph92%29.67 "Hg9 mi
7:02 AM16 °FLight mixture of precip. Low clouds.20 mph93%29.66 "Hg1 mi
7:00 AM16 °FLight snow. Low clouds.20 mph93%29.66 "Hg1 mi
6:58 AM16 °FLight snow. Low clouds.18 mph100%29.66 "Hg1 mi
6:00 AM18 °FLight snow. Low clouds.16 mph93%29.64 "Hg1 mi
5:51 AM18 °FLight snow. Low clouds.16 mph93%29.64 "Hg2 mi
5:00 AM18 °FLight snow. Mostly cloudy.14 mph93%29.63 "Hg9 mi
4:00 AM16 °FLight snow. Passing clouds.10 mph93%29.62 "Hg9 mi
1:00 AM10 °FLight snow. Overcast.9 mph92%29.64 "Hg2 mi
12:59 AM10 °FLight snow. Overcast.9 mph92%29.64 "Hg2 mi
12:00 AM9 °FLight snow. Overcast.7 mph100%29.65 "Hg4 mi
Weather by CustomWeather, © 2014

See weather overviewHow to use our weather pages